[[{"header":{"parameterUnit":"m.s-1","parameterCategory":1,"la1":30.2991,"la2":30.254,"lo1":-89.0895,"lo2":-89.0444,"dy":0.0017,"dx":0.0017,"nx":28,"ny":28,"refTime":"2025-06-18T09:00:00:Z","depth":0,"parameterNumber":2,"parameterNumberName":"U-component_of_WINDS"},"data":[0,0,0,0,0,0,0,0,0,0,0,0,0,0,0,0,0,0,0,0,0,0,0,0,0,0,0,0,0,0,0,0,0,0,0,0,0,0,0,0,0,0,0,0,0,0,0,0,0,0,0,0,0,0,0,0,0,0,-1.1183,-1.1182,0,-1.1128,-1.1127,-1.1127,-1.1118,-1.1118,-1.1119,-1.1119,-1.1059,-1.1057,-1.1055,0,0,0,0,0,0,0,0,0,0,0,0,0,-1.1278,-1.1276,-1.1183,-1.1182,-1.1182,-1.1128,-1.1127,-1.1126,-1.1118,-1.1118,-1.1119,-1.1119,-1.106,-1.1057,-1.1055,0,0,0,0,0,0,0,0,0,0,0,0,0,-1.1231,-1.1276,-1.1183,-1.1171,-1.1169,-1.1128,-1.1127,-1.1126,-1.1117,-1.1118,-1.1119,-1.112,-1.1061,-1.1058,-1.1055,-1.1021,0,0,-1.1045,-1.1044,0,0,0,0,0,0,0,0,-1.1234,-1.1228,-1.1173,-1.1172,-1.117,-1.113,-1.1139,-1.1091,-1.1117,-1.1137,-1.1119,-1.112,-1.1082,-1.1077,-1.1065,-1.1018,-1.1015,-1.1045,-1.1043,-1.1042,-1.1041,0,0,0,0,0,0,0,-1.1237,-1.123,-1.1161,-1.1173,-1.117,-1.1167,-1.1161,-1.1129,-1.1106,-1.1135,-1.1135,-1.1128,-1.1081,-1.1068,-1.1064,-1.1014,-1.1045,-1.1042,-1.104,-1.1039,-1.0937,-1.0936,0,0,0,0,0,0,-1.1243,-1.1233,-1.1163,-1.1159,-1.1204,-1.1165,-1.1158,-1.1142,-1.1106,-1.1102,-1.1128,-1.1128,-1.1073,-1.1067,-1.1061,-1.102,-1.1042,-1.1039,-1.1037,-1.0938,-1.0937,-1.0936,0,0,0,0,0,0,-1.1245,-1.1237,-1.1165,-1.1196,-1.1186,-1.1163,-1.1144,-1.1141,-1.1128,-1.1101,-1.1096,-1.1119,-1.1073,-1.1066,-1.1031,-1.1017,-1.1037,-1.1035,-1.0939,-1.0937,-1.0936,-1.0936,0,0,0,0,0,0,-1.1248,-1.1238,-1.1225,-1.1196,-1.1185,-1.1136,-1.1144,-1.1139,-1.1123,-1.1123,-1.1091,-1.1087,-1.1073,-1.1036,-1.1028,-1.1013,-1.1032,-1.094,-1.0938,-1.0937,-1.0937,-1.0934,-1.0932,0,0,0,0,0,-1.1251,-1.1226,-1.1224,-1.1216,-1.1169,-1.1136,-1.1129,-1.1116,-1.1122,-1.1109,-1.1091,-1.1088,-1.102,-1.1032,-1.1024,-1.1008,-1.0941,-1.0939,-1.0937,-1.0938,-1.0935,-1.0933,0,0,0,0,0,0,-1.1253,-1.1222,-1.122,-1.1185,-1.1163,-1.1134,-1.1117,-1.1113,-1.1088,-1.1089,-1.1072,-1.1065,-1.1032,-1.1016,-1.103,-1.0973,-1.0981,-1.0977,-1.0985,-1.0982,-1.098,-1.0984,-1.103,0,0,0,0,0,-1.125,-1.1227,-1.12,-1.1172,-1.1161,-1.1141,-1.1126,-1.1118,-1.1094,-1.1085,-1.1065,-1.1041,-1.1015,-1.0997,-1.0971,-1.0935,-1.0927,-1.092,-1.0917,-1.0916,-1.0913,-1.0892,-1.0888,-1.0929,-1.0929,-1.0929,0,0,-1.1242,-1.1222,-1.1208,-1.1172,-1.1154,-1.1129,-1.1133,-1.1107,-1.1088,-1.108,-1.1047,-1.1031,-1.1004,-1.0968,-1.0951,-1.0954,-1.09,-1.0913,-1.0912,-1.091,-1.089,-1.0886,-1.0882,-1.0928,-1.0928,-1.0929,0,0,-1.1216,-1.1198,-1.1173,-1.1155,-1.1129,-1.1116,-1.111,-1.1082,-1.1072,-1.1038,-1.1032,-1.1009,-1.0964,-1.0944,-1.0929,-1.0896,-1.0891,-1.0888,-1.0876,-1.0857,-1.0853,-1.085,-1.0838,-1.0834,-1.0885,-1.0885,-1.0885,0,-1.1209,-1.1173,-1.116,-1.1134,-1.1118,-1.1111,-1.1085,-1.1068,-1.1034,-1.1023,-1.1027,-1.0971,-1.0952,-1.0912,-1.0904,-1.0891,-1.0883,-1.0891,-1.0855,-1.0852,-1.0849,-1.0837,-1.0833,-1.0885,-1.0885,-1.0885,-1.0885,0,-1.1166,-1.1141,-1.1123,-1.1092,-1.1074,-1.1048,-1.1031,-1.1014,-1.1007,-1.0994,-1.096,-1.0937,-1.0906,-1.0896,-1.0889,-1.0855,-1.0858,-1.0859,-1.0866,-1.0845,-1.0834,-1.0829,-1.0884,-1.0884,-1.0884,-1.0884,0,0,-1.1138,-1.1101,-1.1095,-1.1081,-1.1051,-1.1031,-1.1005,-1.0976,-1.0962,-1.0939,-1.0916,-1.0879,-1.088,-1.0862,-1.0853,-1.0835,-1.0811,-1.0838,-1.0837,-1.0834,-1.0772,-1.0771,-1.0766,-1.0808,-1.0807,-1.0806,-1.0774,0,-1.1108,-1.1062,-1.105,-1.101,-1.0987,-1.098,-1.0957,-1.0936,-1.0923,-1.09,-1.0885,-1.0859,-1.0863,-1.0852,-1.0835,-1.0817,-1.0798,-1.082,-1.0785,-1.0784,-1.0792,-1.076,-1.0759,-1.0729,-1.0769,-1.0769,-1.0768,0,-1.1066,-1.1044,-1.1002,-1.0976,-1.0966,-1.0945,-1.0919,-1.0897,-1.0873,-1.0865,-1.0846,-1.0838,-1.081,-1.0819,-1.0779,-1.0795,-1.078,-1.077,-1.0768,-1.0764,-1.0775,-1.0754,-1.0719,-1.0715,-1.0761,-1.0762,-1.0762,0,-1.105,-1.1009,-1.0979,-1.0967,-1.0936,-1.0922,-1.0908,-1.0885,-1.0869,-1.0845,-1.0834,-1.0807,-1.0792,-1.0771,-1.0756,-1.0765,-1.0718,-1.0726,-1.0709,-1.071,-1.0699,-1.07,-1.0661,-1.0691,-1.0691,-1.0691,-1.0691,0,-1.1017,-1.0992,-1.0971,-1.0953,-1.0924,-1.0911,-1.0882,-1.0868,-1.0848,-1.0826,-1.0818,-1.0798,-1.078,-1.0756,-1.0744,-1.0713,-1.0706,-1.0698,-1.0695,-1.0699,-1.07,-1.0688,-1.069,-1.069,-1.069,-1.069,-1.069,0,-1.0994,-1.0979,-1.0946,-1.092,-1.0913,-1.0893,-1.087,-1.0851,-1.0838,-1.0811,-1.0803,-1.0782,-1.0755,-1.0738,-1.0702,-1.0694,-1.066,-1.0658,-1.0668,-1.0667,-1.0651,-1.0653,-1.0603,-1.0596,-1.0631,-1.0631,-1.063,0,-1.0974,-1.0954,-1.0927,-1.0912,-1.0898,-1.0875,-1.0858,-1.0844,-1.0828,-1.0799,-1.0784,-1.0756,-1.0733,-1.0689,-1.067,-1.0643,-1.064,-1.0624,-1.0635,-1.0639,-1.0639,-1.064,-1.0638,-1.0622,-1.0622,-1.0621,-1.0621,0,-1.094,-1.0934,-1.0911,-1.0886,-1.0867,-1.0846,-1.0825,-1.0814,-1.0796,-1.0777,-1.075,-1.0732,-1.0696,-1.0668,-1.064,-1.0625,-1.062,-1.0618,-1.0613,-1.0616,-1.0622,-1.0618,-1.0663,-1.0619,-1.0619,-1.0619,-1.0619,-1.062,-1.0917,-1.09,-1.0878,-1.0853,-1.0836,-1.0817,-1.0798,-1.0783,-1.076,-1.0731,-1.0724,-1.0695,-1.0671,-1.0632,-1.0617,-1.0593,-1.0595,-1.0588,-1.0586,-1.0584,-1.0583,-1.0627,-1.0588,-1.0588,-1.0588,-1.0588,-1.0588,0,-1.0882,-1.0868,-1.0845,-1.0817,-1.0797,-1.0796,-1.0773,-1.0756,-1.0731,-1.071,-1.0688,-1.0656,-1.0629,-1.0608,-1.0581,-1.0566,-1.0563,-1.0559,-1.0559,-1.0556,-1.0583,-1.059,-1.0562,-1.0562,-1.0562,-1.0562,-1.0562,-1.0562,-1.0862,-1.0832,-1.0824,-1.0785,-1.0771,-1.0743,-1.073,-1.0712,-1.0696,-1.0661,-1.0639,-1.0626,-1.0605,-1.0576,-1.0551,-1.0545,-1.0535,-1.0532,-1.0526,-1.0551,-1.0554,-1.0557,-1.0563,-1.053,-1.053,-1.05,-1.05,-1.05]},{"header":{"parameterUnit":"m.s-1","parameterCategory":1,"la1":30.2991,"la2":30.254,"lo1":-89.0895,"lo2":-89.0444,"dy":0.0017,"dx":0.0017,"nx":28,"ny":28,"refTime":"2025-06-18T09:00:00:Z","depth":0,"parameterNumber":3,"parameterNumberName":"V-component_of_WINDS"},"data":[0,0,0,0,0,0,0,0,0,0,0,0,0,0,0,0,0,0,0,0,0,0,0,0,0,0,0,0,0,0,0,0,0,0,0,0,0,0,0,0,0,0,0,0,0,0,0,0,0,0,0,0,0,0,0,0,0,0,5.6599,5.6599,0,5.6567,5.6567,5.6566,5.6494,5.6492,5.6491,5.6489,5.6458,5.6459,5.6459,0,0,0,0,0,0,0,0,0,0,0,0,0,5.66,5.66,5.6599,5.6598,5.6598,5.6567,5.6567,5.6566,5.6494,5.6492,5.649,5.6488,5.6458,5.6459,5.6459,0,0,0,0,0,0,0,0,0,0,0,0,0,5.6587,5.66,5.6599,5.6558,5.6554,5.6567,5.6567,5.6566,5.6494,5.6492,5.649,5.6488,5.6458,5.6459,5.646,5.651,0,0,5.6462,5.6463,0,0,0,0,0,0,0,0,5.6588,5.6587,5.6565,5.6561,5.6557,5.6532,5.6555,5.6547,5.6495,5.6517,5.6489,5.6486,5.6485,5.6483,5.6482,5.6509,5.6507,5.6462,5.6463,5.6463,5.6463,0,0,0,0,0,0,0,5.6589,5.6588,5.6586,5.6564,5.6559,5.6542,5.6538,5.6554,5.6514,5.6515,5.651,5.6507,5.6482,5.6482,5.6481,5.6507,5.6462,5.6463,5.6464,5.6464,5.6574,5.6576,0,0,0,0,0,0,5.6595,5.6589,5.6587,5.6585,5.6567,5.6544,5.6539,5.6542,5.6514,5.6507,5.6509,5.6503,5.6481,5.648,5.648,5.6537,5.6463,5.6464,5.6465,5.6571,5.6574,5.6577,0,0,0,0,0,0,5.6595,5.6596,5.6589,5.6586,5.6584,5.6547,5.655,5.6543,5.6542,5.6509,5.6502,5.6515,5.6479,5.6478,5.6503,5.6535,5.6464,5.6465,5.6569,5.6572,5.6576,5.6651,0,0,0,0,0,0,5.6596,5.6596,5.6614,5.6587,5.6584,5.6612,5.6552,5.6544,5.6543,5.6536,5.6513,5.6507,5.6478,5.6502,5.6504,5.6534,5.6466,5.6566,5.657,5.6574,5.6646,5.6657,5.6667,0,0,0,0,0,5.6596,5.6637,5.6615,5.6616,5.6606,5.6614,5.6612,5.6577,5.6546,5.6565,5.6544,5.6508,5.6531,5.6505,5.6507,5.6538,5.6563,5.6569,5.6574,5.6641,5.6655,5.6666,0,0,0,0,0,0,5.667,5.6633,5.6608,5.6642,5.6631,5.6601,5.6623,5.6593,5.6591,5.6585,5.6542,5.6537,5.6568,5.6555,5.6527,5.6586,5.6542,5.6548,5.6592,5.6605,5.6615,5.6617,5.6467,0,0,0,0,0,5.669,5.6699,5.6666,5.6699,5.6695,5.6661,5.6663,5.6636,5.6624,5.662,5.66,5.6591,5.6596,5.66,5.6603,5.6644,5.6638,5.6667,5.6677,5.6686,5.6691,5.6713,5.6725,5.6595,5.6595,5.6594,0,0,5.6731,5.6712,5.6721,5.6713,5.6702,5.6713,5.6657,5.6671,5.6679,5.6622,5.6643,5.663,5.6616,5.6649,5.6663,5.664,5.6726,5.6693,5.67,5.67,5.6719,5.6732,5.6743,5.6598,5.6598,5.6597,0,0,5.6812,5.6799,5.6824,5.6815,5.6799,5.6776,5.6782,5.6757,5.6745,5.6767,5.6724,5.6734,5.6743,5.6735,5.6733,5.6813,5.678,5.6815,5.6869,5.689,5.6901,5.6909,5.6937,5.6948,5.6821,5.6821,5.6821,0,5.6866,5.688,5.6842,5.6858,5.6856,5.6806,5.6832,5.6825,5.6811,5.6811,5.6786,5.6797,5.6785,5.6815,5.6835,5.6835,5.6841,5.6817,5.6902,5.6911,5.6918,5.6945,5.6955,5.6825,5.6825,5.6824,5.6824,0,5.6946,5.6957,5.698,5.6967,5.6968,5.699,5.6956,5.6962,5.6936,5.6916,5.6939,5.6922,5.6921,5.6927,5.6902,5.6955,5.6941,5.691,5.6864,5.6936,5.696,5.6969,5.6831,5.683,5.6829,5.6828,0,0,5.7071,5.7038,5.7047,5.704,5.702,5.7028,5.7048,5.7046,5.7052,5.7045,5.706,5.7071,5.7042,5.7039,5.7013,5.7032,5.7096,5.6999,5.6998,5.7017,5.7153,5.7176,5.7188,5.7075,5.7077,5.7079,5.7154,0,5.7146,5.7176,5.7143,5.7181,5.7191,5.7144,5.7161,5.7151,5.7134,5.714,5.7121,5.7128,5.709,5.7088,5.7105,5.7085,5.7123,5.7079,5.7089,5.709,5.7093,5.72,5.7224,5.7296,5.7163,5.7165,5.7166,0,5.7237,5.7234,5.7272,5.725,5.7253,5.7268,5.7265,5.7271,5.726,5.7246,5.7243,5.7212,5.7231,5.7188,5.7214,5.7185,5.7187,5.7179,5.7181,5.7179,5.7131,5.7201,5.7318,5.7328,5.718,5.7179,5.7178,0,5.7323,5.7328,5.7352,5.7348,5.7323,5.7335,5.7326,5.7312,5.7313,5.731,5.7311,5.7311,5.7311,5.7312,5.7283,5.7254,5.7312,5.7266,5.7301,5.7302,5.7313,5.7313,5.7432,5.7318,5.7318,5.7317,5.7317,0,5.7409,5.7434,5.739,5.7405,5.7432,5.7395,5.7423,5.7409,5.7397,5.7409,5.7369,5.7381,5.7342,5.735,5.7327,5.7351,5.7352,5.7341,5.7335,5.7344,5.7345,5.7344,5.7338,5.732,5.732,5.7319,5.7319,0,5.7509,5.748,5.7503,5.7477,5.7472,5.7493,5.7471,5.7484,5.7465,5.748,5.7482,5.7451,5.7459,5.743,5.7433,5.7418,5.7454,5.744,5.7457,5.7452,5.7488,5.7485,5.7609,5.7623,5.7502,5.7503,5.7504,0,5.7565,5.7583,5.756,5.7564,5.7556,5.7565,5.7566,5.7531,5.7534,5.7523,5.7537,5.7542,5.7543,5.7557,5.7536,5.7538,5.7523,5.7567,5.7523,5.7532,5.7522,5.7521,5.7523,5.7575,5.7577,5.7578,5.7579,0,5.7667,5.7653,5.7655,5.7654,5.7657,5.7654,5.7648,5.7655,5.7617,5.7623,5.763,5.7631,5.7634,5.7639,5.7637,5.7628,5.7597,5.7593,5.7601,5.761,5.7619,5.7613,5.7481,5.759,5.7589,5.7588,5.7587,5.7587,5.7746,5.776,5.7746,5.7751,5.7743,5.774,5.775,5.7733,5.7737,5.7737,5.7716,5.7728,5.7717,5.7711,5.7705,5.7713,5.7693,5.7705,5.7707,5.771,5.7716,5.7619,5.7713,5.7713,5.7712,5.7712,5.7712,0,5.7846,5.7835,5.784,5.7833,5.7837,5.7809,5.7802,5.7807,5.7817,5.7809,5.7811,5.782,5.7825,5.7805,5.7807,5.7818,5.7804,5.7819,5.7817,5.7816,5.7734,5.7727,5.7831,5.7831,5.7831,5.7831,5.7831,5.7831,5.7898,5.792,5.7904,5.7923,5.7912,5.7921,5.792,5.7917,5.791,5.7921,5.7925,5.7911,5.7899,5.79,5.7904,5.7898,5.79,5.792,5.7909,5.7833,5.7822,5.7811,5.7803,5.7921,5.7921,5.799,5.799,5.7991]}]]